KJ5MET Weather Reports


time (UTC)temp
C
wind
direction
speed
KPH
gust
KPH
rain 1hr
cm
rain 24hr
cm
rain mn
cm
humidity
%
barometer
mb
20260902111803 25 113 0.0 3.2 0.00 0.00 0.00 99 1012.9
20260902111244 25 113 0.0 3.2 0.00 0.00 0.00 99 1012.9
20260902110739 25 113 0.0 3.2 0.00 0.00 0.00 99 1012.9
20260902110231 25 113 0.0 3.2 0.00 0.00 0.00 99 1012.9
20260902105726 25 113 0.0 3.2 0.00 0.00 0.00 99 1012.5
20260902105223 25 113 0.0 3.2 0.00 0.00 0.00 99 1012.5
20260902104618 25 113 0.0 3.2 0.00 0.00 0.00 99 1012.5
20260902104059 25 113 0.0 3.2 0.00 0.00 0.00 99 1012.5
20260902103555 25 135 0.0 3.2 0.00 0.00 0.00 99 1012.5
20260902103034 25 135 0.0 3.2 0.00 0.00 0.00 99 1012.5
20260902102529 25 135 0.0 3.2 0.00 0.00 0.00 99 1012.9
20260902102025 25 113 0.0 3.2 0.00 0.00 0.00 99 1012.9
20260902101521 25 113 0.0 6.4 0.00 0.00 0.00 99 1012.9
20260902101018 25 113 0.0 6.4 0.00 0.00 0.00 99 1012.9
20260902100514 25 113 0.0 6.4 0.00 0.00 0.00 99 1012.9
20260902100010 25 135 0.0 6.4 0.00 0.00 0.00 99 1012.9
20260902095506 25 113 1.6 6.4 0.00 0.00 0.00 99 1012.9
20260902095002 25 113 0.0 6.4 0.00 0.00 0.00 99 1012.9
20260902094458 25 113 0.0 6.4 0.00 0.00 0.00 99 1012.9
20260902093954 25 113 0.0 6.4 0.00 0.00 0.00 99 1012.9
20260902093450 25 113 0.0 6.4 0.00 0.00 0.00 99 1012.9
20260902092946 25 113 0.0 6.4 0.00 0.00 0.00 99 1012.9
20260902092442 25 113 0.0 6.4 0.00 0.00 0.00 99 1012.5
20260902091939 25 113 6.4 6.4 0.00 0.00 0.00 99 1012.5
20260902091433 25 113 3.2 4.8 0.00 0.00 0.00 99 1012.5
20260902090929 25 113 0.0 4.8 0.00 0.00 0.00 99 1012.5
20260902090411 25 113 3.2 4.8 0.00 0.00 0.00 99 1012.5
20260902085907 25 113 0.0 4.8 0.00 0.00 0.00 99 1012.5
20260902085403 25 113 0.0 4.8 0.00 0.00 0.00 99 1012.5
20260902084859 25 113 0.0 4.8 0.00 0.00 0.00 99 1012.5
20260902084356 25 135 3.2 3.2 0.00 0.00 0.00 99 1012.5
20260902083852 25 113 0.0 3.2 0.00 0.00 0.00 99 1012.5
20260902083348 25 113 0.0 3.2 0.00 0.00 0.00 99 1012.5
20260902082845 25 135 0.0 3.2 0.00 0.00 0.00 99 1012.5
20260902082341 25 135 0.0 3.2 0.00 0.00 0.00 99 1012.5
20260902081823 25 113 0.0 3.2 0.00 0.00 0.00 99 1012.5
20260902081319 25 135 0.0 4.8 0.00 0.00 0.00 99 1012.5
20260902080654 25 135 3.2 4.8 0.00 0.00 0.00 99 1012.5
20260902080150 25 158 3.2 4.8 0.00 0.00 0.00 99 1012.5
20260902075646 25 135 1.6 8.0 0.00 0.00 0.00 99 1012.5
20260902075128 25 113 3.2 8.0 0.00 0.00 0.00 99 1012.5
20260902074609 25 113 1.6 8.0 0.00 0.00 0.00 99 1012.5
20260902074106 25 113 0.0 8.0 0.00 0.00 0.00 99 1012.5
20260902073602 25 135 0.0 8.0 0.00 0.00 0.00 99 1012.9
20260902073059 26 135 0.0 8.0 0.00 0.00 0.00 99 1012.9
20260902072555 26 113 0.0 8.0 0.00 0.00 0.00 99 1012.9
20260902072037 26 113 1.6 8.0 0.00 0.00 0.00 99 1012.9
20260902071518 26 113 3.2 8.0 0.00 0.00 0.00 99 1012.9
20260902071014 26 135 0.0 8.0 0.00 0.00 0.00 99 1012.9
20260902070510 26 135 3.2 8.0 0.00 0.00 0.00 99 1012.9
20260902070008 26 135 6.4 8.0 0.00 0.00 0.00 99 1012.9
20260902065504 26 158 1.6 8.0 0.00 0.00 0.00 99 1012.9
20260902065000 26 135 3.2 8.0 0.00 0.00 0.00 99 1012.5
20260902064456 26 113 3.2 9.7 0.00 0.00 0.00 99 1012.5
20260902063952 26 135 3.2 9.7 0.00 0.00 0.00 98 1012.5
20260902063448 26 158 4.8 9.7 0.00 0.00 0.00 98 1012.5
20260902062945 26 158 4.8 11.3 0.00 0.00 0.00 98 1012.5
20260902062441 26 180 3.2 11.3 0.00 0.00 0.00 98 1012.9
20260902061937 26 158 3.2 11.3 0.00 0.00 0.00 98 1012.9
20260902061434 26 180 3.2 11.3 0.00 0.00 0.00 98 1012.9
20260902060930 26 180 3.2 11.3 0.00 0.00 0.00 97 1012.9
20260902060426 26 180 3.2 11.3 0.00 0.00 0.00 97 1012.9
20260902055923 26 135 4.8 11.3 0.00 0.00 0.00 97 1012.9
20260902055404 26 135 8.0 11.3 0.00 0.00 0.00 97 1012.9
20260902054900 26 158 4.8 11.3 0.00 0.00 0.00 97 1012.9
20260902054357 26 158 3.2 11.3 0.00 0.00 0.00 97 1012.9
20260902053838 26 158 6.4 11.3 0.00 0.00 0.00 97 1012.9
20260902053334 26 135 3.2 11.3 0.00 0.00 0.00 97 1012.9
20260902052830 26 113 8.0 11.3 0.00 0.00 0.00 97 1012.9
20260902052326 26 135 4.8 16.1 0.00 0.00 0.00 97 1012.9
20260902051823 26 158 6.4 16.1 0.00 0.00 0.00 97 1012.9
20260902051319 26 135 4.8 16.1 0.00 0.00 0.00 97 1012.9
20260902050710 26 135 3.2 16.1 0.00 0.00 0.00 97 1012.9
20260902050206 26 158 3.2 16.1 0.00 0.38 0.38 97 1012.9
20260902045647 26 113 3.2 16.1 0.00 0.38 0.38 97 1012.9
20260902045143 26 113 4.8 16.1 0.00 0.38 0.38 97 1012.9
20260902044639 26 135 3.2 16.1 0.00 0.38 0.38 97 1013.2
20260902044119 26 135 8.0 16.1 0.00 0.38 0.38 97 1013.2
20260902043609 26 158 4.8 16.1 0.00 0.38 0.38 97 1013.2
20260902043105 26 158 4.8 16.1 0.00 0.38 0.38 98 1013.2
20260902042602 26 113 4.8 11.3 0.00 0.38 0.38 98 1013.2
20260902042043 26 135 3.2 14.5 0.00 0.38 0.38 98 1013.2
20260902041539 26 113 3.2 14.5 0.00 0.38 0.38 98 1013.2
20260902041035 26 113 6.4 14.5 0.00 0.38 0.38 98 1013.2
20260902040516 26 135 6.4 14.5 0.00 0.38 0.38 98 1013.2
20260902040008 26 90 6.4 14.5 0.00 0.38 0.38 98 1013.2
20260902035449 26 113 3.2 14.5 0.00 0.38 0.38 98 1013.2
20260902034945 26 90 6.4 14.5 0.00 0.38 0.38 98 1013.2
20260902034442 26 113 4.8 14.5 0.00 0.38 0.38 98 1013.2
20260902033938 26 113 1.6 14.5 0.00 0.38 0.38 98 1013.2
20260902033419 26 68 6.4 14.5 0.00 0.38 0.38 98 1013.2
20260902032916 26 135 8.0 14.5 0.00 0.38 0.38 98 1013.2
20260902032412 26 113 3.2 14.5 0.00 0.38 0.38 98 1013.2
20260902031853 26 113 3.2 11.3 0.00 0.38 0.38 98 1013.2
20260902031350 26 158 0.0 11.3 0.00 0.38 0.38 98 1012.9
20260902030846 26 113 1.6 9.7 0.00 0.38 0.38 98 1012.9
20260902030342 26 90 3.2 9.7 0.00 0.38 0.38 98 1012.9
20260902025839 26 113 3.2 9.7 0.00 0.38 0.38 98 1012.9
20260902025335 26 113 0.0 9.7 0.00 0.38 0.38 98 1012.9
20260902024831 27 113 0.0 9.7 0.00 0.38 0.38 98 1012.5
20260902024327 27 113 3.2 9.7 0.00 0.38 0.38 98 1012.5
20260902023823 27 113 3.2 9.7 0.00 0.38 0.38 97 1012.5
20260902023320 27 113 0.0 9.7 0.00 0.38 0.38 97 1012.5
20260902022711 27 90 1.6 9.7 0.00 0.38 0.38 97 1012.5
20260902022207 27 135 3.2 9.7 0.00 0.38 0.38 97 1012.5
20260902021701 27 135 3.2 9.7 0.00 0.38 0.38 97 1012.5
20260902021157 27 113 3.2 8.0 0.00 0.38 0.38 97 1012.2
20260902020653 27 113 3.2 8.0 0.00 0.38 0.38 97 1012.2
20260902020149 27 113 3.2 8.0 0.00 0.38 0.38 97 1012.2
20260902015644 27 113 3.2 8.0 0.00 0.38 0.38 97 1012.2
20260902015141 27 135 0.0 8.0 0.00 0.38 0.38 97 1012.2
20260902014621 27 113 4.8 8.0 0.00 0.38 0.38 97 1012.2
20260902014103 27 158 3.2 4.8 0.00 0.38 0.38 97 1012.2
20260902013559 27 158 3.2 6.4 0.00 0.38 0.38 97 1012.2
20260902013040 27 158 0.0 6.4 0.00 0.38 0.38 97 1012.2
20260902012536 27 158 3.2 9.7 0.00 0.38 0.38 97 1012.2
20260902012032 27 158 1.6 9.7 0.00 0.38 0.38 96 1012.2
20260902011528 27 158 0.0 9.7 0.00 0.38 0.38 96 1012.2
20260902011024 27 135 1.6 11.3 0.00 0.38 0.38 96 1012.2
20260902010520 27 135 3.2 11.3 0.00 0.38 0.38 96 1012.2
20260902010016 27 180 0.0 11.3 0.00 0.38 0.38 96 1012.2
20260902005512 27 113 3.2 11.3 0.00 0.38 0.38 96 1012.2
20260902005009 27 113 1.6 11.3 0.00 0.38 0.38 95 1012.2
20260902004505 27 113 3.2 11.3 0.00 0.38 0.38 95 1012.2
20260902004001 27 135 3.2 11.3 0.00 0.38 0.38 95 1012.2
20260902003457 27 113 6.4 11.3 0.00 0.38 0.38 94 1011.9
20260902002953 27 68 3.2 14.5 0.00 0.38 0.38 94 1011.9
20260902002448 27 113 4.8 14.5 0.00 0.38 0.38 94 1011.9
20260902001945 27 135 3.2 14.5 0.00 0.38 0.38 93 1011.9
20260902001426 27 90 1.6 14.5 0.00 0.38 0.38 93 1011.9
20260902000922 28 68 6.4 14.5 0.00 0.38 0.38 92 1012.2
20260902000418 28 135 3.2 14.5 0.00 0.38 0.38 92 1012.2
20260901235914 28 113 4.8 14.5 0.00 0.38 0.38 92 1012.2
20260901235410 28 90 3.2 16.1 0.00 0.38 0.38 92 1012.2
20260901234906 28 135 8.0 16.1 0.00 0.38 0.38 91 1012.2
20260901234346 28 158 8.0 16.1 0.00 0.38 0.38 91 1012.2
20260901233842 28 113 9.7 16.1 0.00 0.38 0.38 90 1012.2
20260901233338 28 90 3.2 16.1 0.00 0.38 0.38 90 1012.2
20260901232819 28 90 3.2 16.1 0.00 0.38 0.38 89 1012.2
20260901232254 28 135 4.8 16.1 0.00 0.38 0.38 89 1012.2
20260901231750 29 90 0.0 16.1 0.00 0.38 0.38 88 1012.2
20260901231246 29 113 3.2 16.1 0.00 0.38 0.38 87 1011.9
20260901230741 29 90 4.8 16.1 0.00 0.38 0.38 86 1011.9
20260901230235 29 113 8.0 16.1 0.00 0.38 0.38 87 1011.9
20260901225730 29 113 3.2 16.1 0.00 0.38 0.38 87 1011.5
20260901225221 29 113 4.8 11.3 0.00 0.38 0.38 88 1011.5
20260901224717 29 135 6.4 11.3 0.00 0.38 0.38 88 1011.5
20260901224212 30 90 1.6 12.9 0.00 0.38 0.38 87 1011.5
20260901223708 29 135 6.4 17.7 0.00 0.38 0.38 86 1011.5
20260901223200 30 113 6.4 17.7 0.00 0.38 0.38 85 1011.5
20260901222641 30 90 3.2 17.7 0.00 0.38 0.38 84 1011.5
20260901222135 30 113 3.2 17.7 0.00 0.38 0.38 84 1011.5
20260901221630 30 135 6.4 17.7 0.00 0.38 0.38 83 1011.5
20260901221112 30 90 3.2 17.7 0.00 0.38 0.38 82 1011.5
20260901220539 30 113 8.0 17.7 0.00 0.38 0.38 81 1011.5
20260901220035 30 68 3.2 17.7 0.00 0.38 0.38 81 1011.2
20260901215532 30 113 6.4 17.7 0.00 0.38 0.38 81 1011.2
20260901215028 30 68 6.4 17.7 0.00 0.38 0.38 81 1011.2
20260901214508 30 113 3.2 17.7 0.00 0.38 0.38 82 1011.5
20260901214004 30 90 6.4 17.7 0.00 0.38 0.38 82 1011.5
20260901213500 30 113 8.0 17.7 0.00 0.38 0.38 83 1011.9
20260901212956 30 68 6.4 17.7 0.00 0.38 0.38 83 1011.9
20260901212452 30 135 9.7 17.7 0.00 0.38 0.38 82 1011.9
20260901211948 30 113 6.4 17.7 0.00 0.38 0.38 84 1011.9
20260901211444 30 113 9.7 17.7 0.00 0.38 0.38 85 1011.9
20260901210939 30 135 12.9 17.7 0.00 0.38 0.38 85 1012.2
20260901210436 30 113 4.8 12.9 0.00 0.38 0.38 85 1012.2
20260901205917 30 203 3.2 12.9 0.00 0.38 0.38 85 1012.5
20260901205412 30 90 11.3 12.9 0.00 0.38 0.38 85 1012.5
20260901204853 30 135 3.2 12.9 0.00 0.38 0.38 86 1012.5
20260901204349 30 90 3.2 12.9 0.00 0.38 0.38 86 1012.5
20260901203845 29 113 3.2 12.9 0.00 0.38 0.38 87 1012.5
20260901203341 30 135 4.8 14.5 0.00 0.38 0.38 87 1012.9
20260901202836 29 68 3.2 14.5 0.00 0.38 0.38 87 1012.9
20260901202318 29 113 8.0 14.5 0.00 0.38 0.38 87 1012.5
20260901201814 29 68 3.2 14.5 0.00 0.38 0.38 88 1012.5
20260901201310 29 90 6.4 14.5 0.00 0.38 0.38 89 1012.5
20260901200806 28 113 3.2 14.5 0.00 0.38 0.38 89 1012.5
20260901200303 29 113 3.2 14.5 0.00 0.38 0.38 89 1012.5
20260901195743 28 68 1.6 14.5 0.00 0.38 0.38 89 1012.9
20260901195224 28 135 3.2 14.5 0.00 0.38 0.38 89 1012.9
20260901194705 28 90 3.2 14.5 0.00 0.38 0.38 90 1013.2
20260901194201 28 90 8.0 14.5 0.00 0.38 0.38 89 1013.2
20260901193657 28 113 11.3 14.5 0.00 0.38 0.38 89 1013.2
20260901193138 28 113 14.5 14.5 0.00 0.38 0.38 89 1013.2
20260901192634 28 158 3.2 12.9 0.00 0.38 0.38 90 1013.2
20260901192131 28 113 6.4 12.9 0.00 0.38 0.38 90 1013.2
20260901191627 28 135 3.2 12.9 0.00 0.38 0.38 90 1013.2
20260901191123 28 135 9.7 12.9 0.00 0.38 0.38 90 1013.2
20260901190603 28 90 6.4 11.3 0.00 0.38 0.38 91 1013.2
20260901190100 28 135 6.4 11.3 0.00 0.38 0.38 91 1013.2
20260901185555 28 135 8.0 11.3 0.00 0.38 0.38 91 1013.2
20260901185051 27 135 6.4 11.3 0.00 0.38 0.38 91 1013.2
20260901184547 27 68 3.2 11.3 0.00 0.38 0.38 92 1013.2
20260901184043 27 90 1.6 11.3 0.00 0.38 0.38 93 1013.2
20260901183539 27 113 4.8 11.3 0.00 0.38 0.38 93 1013.2
20260901183035 27 68 8.0 11.3 0.00 0.38 0.38 95 1013.2
20260901182531 26 113 3.2 11.3 0.00 0.38 0.38 95 1013.2
20260901182011 26 45 6.4 11.3 0.00 0.38 0.38 95 1013.2
20260901181502 26 90 3.2 17.7 0.00 0.38 0.38 96 1013.2
20260901180951 26 135 0.0 17.7 0.03 0.38 0.38 96 1012.9
20260901180432 26 113 1.6 17.7 0.03 0.38 0.38 96 1012.9
20260901175928 26 90 8.0 17.7 0.05 0.38 0.38 96 1013.2
20260901175424 26 90 4.8 17.7 0.08 0.38 0.38 96 1013.2
20260901174920 26 68 6.4 17.7 0.15 0.38 0.38 97 1013.2
20260901174400 26 90 3.2 17.7 0.15 0.38 0.38 97 1013.2
20260901173856 26 68 3.2 17.7 0.15 0.38 0.38 97 1013.2
20260901173352 26 45 3.2 17.7 0.18 0.38 0.38 97 1013.5
20260901172833 26 113 6.4 17.7 0.18 0.38 0.38 97 1013.5
20260901172329 26 90 8.0 17.7 0.18 0.38 0.38 96 1013.2
20260901171825 26 90 9.7 17.7 0.18 0.38 0.38 96 1013.2
20260901171306 26 158 12.9 17.7 0.18 0.38 0.38 96 1013.2
20260901170802 26 45 14.5 17.7 0.15 0.36 0.36 97 1013.2
20260901170257 27 135 11.3 17.7 0.15 0.36 0.36 97 1013.2
20260901165717 27 135 8.0 12.9 0.13 0.33 0.33 97 1013.2
20260901164527 28 135 8.0 11.3 0.03 0.23 0.23 96 1013.2
20260901163536 28 68 4.8 11.3 0.03 0.23 0.23 94 1013.2
20260901163145 28 90 8.0 11.3 0.00 0.20 0.20 92 1013.2
20260901162602 28 68 6.4 11.3 0.00 0.20 0.20 92 1013.2
20260901162038 28 113 3.2 11.3 0.00 0.20 0.20 92 1013.2
20260901161410 28 113 6.4 11.3 0.00 0.20 0.20 93 1013.2
20260901160841 28 45 9.7 11.3 0.00 0.20 0.20 93 1013.2
20260901160314 28 45 1.6 11.3 0.03 0.20 0.20 93 1013.2
20260901155735 28 68 6.4 11.3 0.03 0.20 0.20 96 1013.2
20260901155209 27 113 6.4 11.3 0.03 0.20 0.20 97 1013.2
20260901154643 27 113 3.2 11.3 0.03 0.20 0.20 96 1013.2
20260901154116 27 90 3.2 11.3 0.03 0.20 0.20 96 1013.2
20260901153548 27 90 1.6 14.5 0.03 0.20 0.20 96 1013.2
20260901153038 27 68 6.4 14.5 0.03 0.20 0.20 97 1013.2
20260901152534 27 90 0.0 17.7 0.03 0.20 0.20 96 1013.2
20260901152015 27 113 6.4 17.7 0.03 0.20 0.20 96 1013.2
20260901151510 27 113 3.2 17.7 0.03 0.20 0.20 96 1013.2
20260901151006 27 23 4.8 17.7 0.03 0.20 0.20 95 1013.2
20260901150502 27 68 6.4 17.7 0.00 0.18 0.18 93 1013.2
20260901145958 27 135 3.2 17.7 0.00 0.18 0.18 93 1013.2
20260901145447 27 135 3.2 17.7 0.00 0.18 0.18 93 1013.2
20260901144928 27 68 6.4 17.7 0.00 0.18 0.18 92 1013.2
20260901144424 27 90 3.2 17.7 0.00 0.18 0.18 92 1013.2
20260901143919 27 135 14.5 17.7 0.00 0.18 0.18 92 1013.2
20260901143415 27 113 3.2 17.7 0.00 0.18 0.18 92 1013.2
20260901142911 27 113 11.3 17.7 0.00 0.18 0.18 92 1013.2
20260901142407 27 90 3.2 14.5 0.00 0.18 0.18 92 1013.2
20260901141902 27 113 9.7 14.5 0.00 0.18 0.18 92 1013.2
20260901141358 27 180 3.2 11.3 0.00 0.18 0.18 92 1013.2
20260901140854 27 90 6.4 11.3 0.00 0.18 0.18 93 1013.2
20260901140350 27 135 9.7 11.3 0.00 0.18 0.18 93 1013.2
20260901135845 27 113 8.0 11.3 0.00 0.18 0.18 95 1013.2
20260901135341 26 68 3.2 11.3 0.00 0.18 0.18 97 1013.2
20260901134837 26 90 3.2 11.3 0.00 0.18 0.18 98 1013.2
20260901134332 26 90 6.4 11.3 0.00 0.18 0.18 99 1013.2
20260901133828 25 113 3.2 11.3 0.00 0.18 0.18 99 1013.2
20260901133324 25 135 0.0 9.7 0.08 0.18 0.18 99 1013.2
20260901132820 25 90 3.2 9.7 0.08 0.18 0.18 99 1013.2
20260901132155 25 113 6.4 11.3 0.08 0.18 0.18 99 1012.9
20260901131651 25 90 0.0 11.3 0.08 0.18 0.18 99 1012.9
20260901131147 25 113 3.2 11.3 0.08 0.18 0.18 99 1013.2
20260901130642 25 45 3.2 11.3 0.08 0.18 0.18 99 1013.2
20260901130138 25 90 3.2 11.3 0.08 0.18 0.18 99 1012.9
20260901125633 25 68 3.2 11.3 0.08 0.18 0.18 99 1012.9
20260901125129 25 90 4.8 11.3 0.08 0.18 0.18 99 1012.9
20260901124625 25 135 4.8 11.3 0.08 0.18 0.18 99 1012.9
20260901124119 25 90 3.2 11.3 0.08 0.18 0.18 99 1012.9
20260901123614 25 135 8.0 11.3 0.03 0.13 0.13 99 1012.5
20260901123107 25 113 3.2 11.3 0.00 0.10 0.10 99 1012.5
20260901122442 24 68 6.4 11.3 0.03 0.10 0.10 99 1012.2
20260901121900 24 90 4.8 11.3 0.03 0.10 0.10 99 1012.2
20260901121337 24 68 6.4 11.3 0.03 0.10 0.10 99 1012.2
20260901120812 24 68 3.2 11.3 0.03 0.10 0.10 99 1012.2
20260901120247 24 90 3.2 11.3 0.03 0.10 0.10 99 1012.2
20260901115724 24 90 3.2 11.3 0.03 0.10 0.10 99 1012.2
20260901115159 24 90 1.6 11.3 0.03 0.10 0.10 99 1012.2
20260901114636 24 68 6.4 11.3 0.03 0.10 0.10 99 1012.2
20260901114111 24 68 4.8 11.3 0.03 0.10 0.10 99 1012.2
20260901113427 24 45 11.3 11.3 0.03 0.10 0.10 99 1012.2
20260901112923 24 90 9.7 9.7 0.00 0.08 0.08 99 1012.2
20260901112417 24 68 3.2 9.7 0.00 0.08 0.08 99 1011.9
20260901111913 24 113 0.0 9.7 0.00 0.08 0.08 99 1011.9